DW5759 Weather Reports


Display with metric or nautical units.
time (UTC)temp
F
wind
direction
speed
MPH
gust
MPH
rain 1hr
in
rain 24hr
in
rain mn
in
humidity
%
barometer
mb
20260904191504 83 359 0.0 2.0 0.00 0.10 0.10 59 1010.4
20260904190008 83 333 0.0 1.0 0.00 0.10 0.10 54 1010.7
20260904184516 82 290 0.0 0.0 0.00 0.10 0.10 55 1010.8
20260904183017 80 274 0.0 1.0 0.00 0.10 0.10 62 1010.9
20260904181517 80 51 0.0 0.0 0.00 0.10 0.10 66 1011.0
20260904180010 80 71 0.0 0.0 0.00 0.10 0.10 62 1011.0
20260904174519 80 56 0.0 4.0 0.00 0.10 0.10 60 1011.0
20260904173017 79 283 0.0 4.0 0.00 0.10 0.10 62 1010.9
20260904171525 79 68 0.0 0.0 0.00 0.10 0.10 64 1011.1
20260904170021 79 359 0.0 0.0 0.00 0.10 0.10 62 1010.9
20260904164511 79 5 0.0 3.0 0.00 0.10 0.10 63 1011.1
20260904163020 79 323 0.0 2.0 0.00 0.10 0.10 65 1011.1
20260904161519 79 4 0.0 5.0 0.00 0.10 0.10 64 1011.5
20260904160026 78 243 1.0 9.0 0.00 0.10 0.10 63 1011.6
20260904154510 78 27 1.0 6.0 0.01 0.10 0.10 66 1011.6
20260904153015 77 297 0.0 4.0 0.01 0.11 0.10 67 1011.8
20260904151517 77 280 0.0 4.0 0.01 0.11 0.10 73 1011.9
20260904150036 76 359 0.0 2.0 0.01 0.11 0.10 80 1012.1
20260904144505 75 302 0.0 0.0 0.01 0.10 0.09 81 1012.1
20260904143026 74 122 0.0 0.0 0.01 0.10 0.09 87 1012.2
20260904141510 73 307 0.0 0.0 0.01 0.10 0.09 89 1012.1
20260904140019 72 157 0.0 0.0 0.01 0.10 0.09 93 1012.1
20260904134527 71 174 0.0 0.0 0.00 0.09 0.08 96 1012.1
20260904133030 71 109 0.0 0.0 0.00 0.09 0.08 96 1012.1
20260904131512 70 163 0.0 0.0 0.00 0.09 0.08 96 1012.1
20260904130026 69 176 0.0 0.0 0.00 0.09 0.08 96 1012.2
20260904124529 69 143 0.0 0.0 0.00 0.09 0.08 96 1012.1
20260904123027 69 336 0.0 0.0 0.00 0.09 0.08 96 1012.0
20260904121528 68 336 0.0 0.0 0.01 0.09 0.08 96 1011.9
20260904120018 68 336 0.0 0.0 0.01 0.10 0.08 96 1011.8
20260904114538 67 336 0.0 0.0 0.01 0.10 0.08 95 1011.6
20260904113038 67 336 0.0 0.0 0.01 0.10 0.08 95 1011.6
20260904111506 67 336 0.0 0.0 0.00 0.09 0.07 95 1011.3
20260904110032 67 336 0.0 0.0 0.00 0.10 0.07 95 1011.2
20260904104534 67 336 0.0 0.0 0.00 0.10 0.07 95 1011.1
20260904103034 67 336 0.0 0.0 0.00 0.11 0.07 95 1010.9
20260904101530 68 336 0.0 0.0 0.01 0.11 0.07 95 1010.9
20260904100007 68 336 0.0 0.0 0.01 0.11 0.07 95 1011.0
20260904094515 69 332 0.0 0.0 0.01 0.11 0.07 95 1010.9
20260904093020 69 332 0.0 0.0 0.01 0.12 0.07 95 1011.1
20260904091526 69 332 0.0 0.0 0.00 0.12 0.06 95 1010.9
20260904090029 69 332 0.0 0.0 0.01 0.12 0.06 95 1010.7
20260904084511 69 332 0.0 0.0 0.01 0.13 0.06 95 1010.6
20260904083016 70 332 0.0 0.0 0.02 0.14 0.06 95 1010.2
20260904081523 70 332 0.0 0.0 0.02 0.14 0.06 95 1010.1
20260904080024 70 332 0.0 0.0 0.02 0.14 0.05 95 1010.0
20260904074558 70 332 0.0 0.0 0.03 0.15 0.05 95 1010.0
20260904073012 70 332 0.0 0.0 0.03 0.14 0.04 95 1010.1
20260904071529 70 332 0.0 0.0 0.03 0.14 0.04 95 1010.2
20260904070026 70 332 0.0 0.0 0.03 0.14 0.03 94 1010.7
20260904064505 70 339 0.0 0.0 0.02 0.14 0.02 95 1010.9
20260904063009 70 339 0.0 0.0 0.01 0.13 0.01 94 1011.1
20260904061512 71 339 0.0 0.0 0.01 0.14 0.01 94 1011.0
20260904060004 71 339 0.0 0.0 0.00 0.14 0.00 94 1011.2
20260904054507 71 339 0.0 0.0 0.00 0.16 0.00 94 1011.2
20260904053009 71 305 0.0 0.0 0.00 0.17 0.00 93 1011.2
20260904051517 71 301 0.0 0.0 0.00 0.18 0.00 93 1011.1
20260904050020 71 301 0.0 0.0 0.00 0.20 0.00 93 1011.1
20260904044505 71 301 0.0 0.0 0.00 0.22 0.00 93 1011.3
20260904043004 71 301 0.0 0.0 0.00 0.24 0.00 93 1011.4
20260904041510 71 289 0.0 0.0 0.00 0.27 0.00 93 1011.5
20260904040014 71 312 0.0 0.0 0.00 0.31 0.00 93 1011.4
20260904034522 71 312 0.0 0.0 0.00 0.33 0.31 94 1011.7
20260904033004 71 312 0.0 1.0 0.00 0.34 0.31 93 1011.7
20260904031506 71 312 0.0 0.0 0.00 0.34 0.31 93 1011.8
20260904030013 72 312 0.0 0.0 0.00 0.34 0.31 93 1011.7
20260904024516 72 312 0.0 0.0 0.00 0.34 0.31 93 1012.0
20260904023031 72 312 0.0 0.0 0.00 0.34 0.31 93 1012.1
20260904021505 72 299 0.0 0.0 0.00 0.34 0.31 93 1012.1
20260904020011 73 299 0.0 0.0 0.00 0.34 0.31 93 1012.3
20260904014515 73 298 0.0 0.0 0.00 0.34 0.31 92 1012.0
20260904013019 73 297 0.0 0.0 0.00 0.34 0.31 92 1012.1
20260904011526 73 295 0.0 0.0 0.00 0.34 0.31 92 1012.2
20260904010007 73 290 0.0 0.0 0.00 0.34 0.31 92 1012.1
20260904004513 73 290 0.0 0.0 0.00 0.34 0.31 91 1012.1
20260904003014 74 293 0.0 0.0 0.00 0.34 0.31 92 1012.1
20260904001516 74 338 0.0 0.0 0.00 0.34 0.31 91 1011.8
20260904000106 75 338 0.0 0.0 0.00 0.34 0.31 91 1011.7
20260903234508 75 330 0.0 0.0 0.00 0.34 0.31 90 1011.9
20260903233008 76 316 0.0 0.0 0.00 0.34 0.31 89 1011.4
20260903231515 77 295 0.0 0.0 0.00 0.35 0.31 89 1011.1
20260903230027 77 285 0.0 0.0 0.00 0.35 0.31 88 1011.5
20260903224540 78 285 0.0 0.0 0.00 0.35 0.31 87 1011.4
20260903223005 78 284 0.0 1.0 0.00 0.35 0.31 87 1011.5
20260903221524 79 274 0.0 0.0 0.00 0.35 0.31 87 1011.2
20260903220019 79 257 0.0 0.0 0.00 0.35 0.31 85 1011.1
20260903214534 80 257 0.0 0.0 0.00 0.35 0.31 84 1011.3
20260903213016 80 252 0.0 0.0 0.00 0.35 0.31 83 1011.3
20260903211511 81 265 0.0 0.0 0.00 0.35 0.31 82 1011.2
20260903210014 81 266 0.0 0.0 0.00 0.35 0.31 80 1011.2
20260903204524 82 255 0.0 0.0 0.00 0.35 0.31 79 1011.1
20260903203009 82 246 0.0 0.0 0.00 0.35 0.31 80 1011.3
20260903201509 82 261 0.0 0.0 0.00 0.35 0.31 77 1011.3
20260903200016 83 205 0.0 0.0 0.00 0.35 0.31 75 1011.4
20260903194516 84 225 0.0 0.0 0.00 0.35 0.31 74 1011.5
20260903193027 83 152 0.0 0.0 0.00 0.35 0.31 75 1011.5